Date String (YYYY-MM-DD hh:mm:ss) UTC,Instrument flags,Ambient pressure (hPa),Sample flow (lpm),Bypass flow (lpm),Sample temperature (°C),Ambient temperature (°C),ASC tube jacket temperature (°C),LED temperature (°C),Box temperature (°C),Sample RH (%),Span deviation,Mass concentration (μg/m³),Mass concentration (μg/m³),Mass concentration (μg/m³)
DateTimeUTC,F1_M11,P_M11,Q1_M11,Q2_M11,T1_M11,T2_M11,T3_M11,T4_M11,T5_M11,U1_M11,ZSPAN_M11,X0_M11,X2_M11,X1_M11
2022-11-30 02:00:00,,0822.6,5.01,0.00,21.8,20.3,00.0,30.8,23.5,09.4,0000.0,0008.30,0004.81,0004.38
2022-11-30 02:01:00,,0822.6,5.01,0.00,21.8,20.2,00.0,30.8,23.5,09.4,0000.0,0008.16,0004.74,0004.32
2022-11-30 02:02:00,,0822.6,5.00,0.00,21.8,20.2,00.0,30.8,23.5,09.4,0000.0,0007.85,0004.63,0004.26
2022-11-30 02:03:00,,0822.6,5.00,0.00,21.8,21.0,00.0,30.7,23.7,09.4,0000.0,0007.51,0004.58,0004.22
2022-11-30 02:04:00,,0822.7,5.00,0.00,21.9,21.8,00.0,30.7,23.9,09.3,0000.0,0007.56,0004.57,0004.20
2022-11-30 02:05:00,,0822.6,5.00,0.00,22.0,21.9,00.0,30.7,24.0,09.3,0000.0,0007.70,0004.52,0004.17
2022-11-30 02:06:00,,0822.6,5.00,0.00,22.0,21.6,00.0,30.8,23.9,09.2,0000.0,0008.21,0004.45,0004.11
2022-11-30 02:07:00,,0822.7,5.00,0.00,22.0,21.3,00.0,30.8,23.8,09.1,0000.0,0008.68,0004.41,0004.09
2022-11-30 02:08:00,,0822.7,5.01,0.00,22.0,21.0,00.0,30.8,23.8,09.0,0000.0,0008.69,0004.43,0004.13
2022-11-30 02:09:00,,0822.8,5.00,0.00,22.0,20.8,00.0,30.8,23.7,09.0,0000.0,0008.76,0004.48,0004.17
2022-11-30 02:10:00,,0822.8,5.00,0.00,21.9,20.6,00.0,30.9,23.7,09.1,0000.0,0008.79,0004.51,0004.20
2022-11-30 02:11:00,,0822.8,5.00,0.00,21.9,20.4,00.0,30.8,23.6,09.1,0000.0,0009.39,0004.52,0004.22
2022-11-30 02:12:00,,0822.7,5.00,0.00,21.9,20.3,00.0,30.8,23.6,09.2,0000.0,0009.67,0004.57,0004.26
2022-11-30 02:13:00,,0822.8,5.01,0.00,21.8,20.2,00.0,30.8,23.5,09.2,0000.0,0010.16,0004.64,0004.31
2022-11-30 02:14:00,,0822.8,5.00,0.00,21.8,20.8,00.0,30.8,23.6,09.2,0000.0,0010.21,0004.70,0004.37
2022-11-30 02:15:00,,0822.9,5.00,0.00,21.9,21.7,00.0,30.7,23.9,09.2,0000.0,0010.20,0004.73,0004.43
2022-11-30 02:16:00,,0822.9,5.00,0.00,22.0,22.5,00.0,30.7,24.1,09.2,0000.0,0010.28,0004.76,0004.47
2022-11-30 02:17:00,,0822.9,4.99,0.00,22.1,22.1,00.0,30.8,24.1,09.1,0000.0,0009.53,0004.80,0004.52
2022-11-30 02:18:00,,0822.8,5.00,0.00,22.1,21.7,00.0,30.9,24.0,09.2,0000.0,0009.15,0004.84,0004.57
2022-11-30 02:19:00,,0822.8,5.00,0.00,22.1,21.3,00.0,30.9,23.9,09.2,0000.0,0008.99,0004.84,0004.56
2022-11-30 02:20:00,,0822.9,5.00,0.00,22.0,21.0,00.0,30.9,23.8,09.2,0000.0,0008.93,0004.79,0004.52
2022-11-30 02:21:00,,0822.9,5.01,0.00,22.0,20.8,00.0,30.9,23.8,09.2,0000.0,0008.89,0004.78,0004.51
2022-11-30 02:22:00,,0823.0,5.01,0.00,22.0,20.7,00.0,30.9,23.8,09.1,0000.0,0008.43,0004.80,0004.52
2022-11-30 02:23:00,,0822.9,4.99,0.00,22.0,20.7,00.0,30.9,23.8,09.1,0000.0,0008.07,0004.77,0004.50
2022-11-30 02:24:00,,0822.9,4.99,0.00,22.0,20.6,00.0,30.9,23.8,09.1,0000.0,0007.62,0004.74,0004.47
2022-11-30 02:25:00,,0822.9,5.00,0.00,22.0,20.5,00.0,30.9,23.7,09.1,0000.0,0007.60,0004.71,0004.44
2022-11-30 02:26:00,,0823.0,5.00,0.00,21.9,20.1,00.0,30.9,23.5,09.1,0000.0,0007.67,0004.68,0004.40
2022-11-30 02:27:00,,0823.0,5.01,0.00,21.8,20.3,00.0,30.9,23.5,09.1,0000.0,0007.70,0004.69,0004.38
2022-11-30 02:28:00,,0823.0,5.02,0.00,21.9,21.2,00.0,30.8,23.7,09.0,0000.0,0007.62,0004.67,0004.35
2022-11-30 02:29:00,,0823.0,4.99,0.00,22.0,22.1,00.0,30.8,24.0,09.0,0000.0,0007.91,0004.65,0004.33
2022-11-30 02:30:00,,0823.0,4.99,0.00,22.1,22.0,00.0,30.8,24.0,09.0,0000.0,0007.95,0004.65,0004.32
2022-11-30 02:31:00,,0823.0,4.99,0.00,22.1,21.5,00.0,30.9,23.9,09.0,0000.0,0007.98,0004.65,0004.32
2022-11-30 02:32:00,,0823.0,4.99,0.00,22.0,21.1,00.0,30.9,23.8,09.0,0000.0,0008.17,0004.69,0004.32
2022-11-30 02:33:00,,0823.0,5.01,0.00,22.0,20.9,00.0,30.9,23.7,09.0,0000.0,0008.24,0004.68,0004.32
2022-11-30 02:34:00,,0823.1,5.01,0.00,22.0,20.8,00.0,30.9,23.7,09.0,0000.0,0008.25,0004.70,0004.33
2022-11-30 02:35:00,,0823.1,5.00,0.00,21.9,20.6,00.0,30.9,23.6,08.9,0000.0,0008.27,0004.72,0004.34
2022-11-30 02:36:00,,0822.9,4.99,0.00,21.9,20.4,00.0,30.9,23.6,09.0,0000.0,0008.36,0004.76,0004.38
2022-11-30 02:37:00,,0822.9,5.01,0.00,21.9,20.3,00.0,30.9,23.6,09.1,0000.0,0008.41,0004.83,0004.45
2022-11-30 02:38:00,,0822.9,5.01,0.00,21.8,20.2,00.0,30.9,23.5,09.0,0000.0,0008.44,0004.90,0004.52
2022-11-30 02:39:00,,0823.0,4.99,0.00,21.8,20.3,00.0,30.8,23.5,09.1,0000.0,0008.47,0004.93,0004.55
2022-11-30 02:40:00,,0823.0,5.00,0.00,21.9,21.1,00.0,30.8,23.7,09.2,0000.0,0008.26,0004.95,0004.56
2022-11-30 02:41:00,,0822.9,4.99,0.00,22.0,22.0,00.0,30.8,23.9,09.2,0000.0,0008.20,0004.97,0004.57
2022-11-30 02:42:00,,0822.9,5.00,0.00,22.0,21.8,00.0,30.8,24.0,09.1,0000.0,0008.22,0005.00,0004.59
2022-11-30 02:43:00,,0822.8,5.00,0.00,22.0,21.5,00.0,30.9,23.9,09.0,0000.0,0008.08,0004.98,0004.60
2022-11-30 02:44:00,,0822.8,4.99,0.00,22.0,21.2,00.0,30.9,23.8,09.1,0000.0,0008.13,0004.98,0004.61
2022-11-30 02:45:00,,0823.0,5.01,0.00,22.0,21.0,00.0,30.9,23.8,09.1,0000.0,0008.18,0005.02,0004.63
2022-11-30 02:46:00,,0823.0,5.00,0.00,22.0,20.8,00.0,30.9,23.7,09.1,0000.0,0008.20,0005.02,0004.64
2022-11-30 02:47:00,,0823.0,5.00,0.00,22.0,20.7,00.0,30.9,23.7,09.1,0000.0,0008.19,0005.04,0004.65
2022-11-30 02:48:00,,0823.0,4.99,0.00,21.9,20.5,00.0,30.9,23.7,09.1,0000.0,0008.11,0004.99,0004.60
2022-11-30 02:49:00,,0822.9,5.00,0.00,21.9,20.3,00.0,30.9,23.6,09.1,0000.0,0008.03,0004.94,0004.56
2022-11-30 02:50:00,,0823.0,5.01,0.00,21.9,20.6,00.0,30.8,23.6,09.2,0000.0,0008.03,0004.93,0004.55
2022-11-30 02:51:00,,0823.0,4.99,0.00,22.0,21.6,00.0,30.8,23.8,09.2,0000.0,0008.02,0004.93,0004.56
2022-11-30 02:52:00,,0823.0,4.99,0.00,22.1,22.4,00.0,30.8,24.1,09.2,0000.0,0007.99,0004.93,0004.58
2022-11-30 02:53:00,,0823.0,5.00,0.00,22.1,22.3,00.0,30.9,24.1,09.1,0000.0,0007.99,0004.95,0004.60
2022-11-30 02:54:00,,0823.0,5.00,0.00,22.1,21.8,00.0,30.9,24.1,09.1,0000.0,0008.05,0004.96,0004.61
2022-11-30 02:55:00,,0823.0,5.00,0.00,22.1,21.4,00.0,30.9,24.0,09.1,0000.0,0008.01,0005.01,0004.64
2022-11-30 02:56:00,,0823.0,5.00,0.00,22.1,21.2,00.0,31.0,23.9,09.2,0000.0,0007.98,0005.02,0004.66
2022-11-30 02:57:00,,0823.1,4.99,0.00,22.1,21.0,00.0,31.0,23.8,09.0,0000.0,0008.09,0005.12,0004.77
2022-11-30 02:58:00,,0823.1,5.02,0.00,22.0,20.8,00.0,31.0,23.8,09.0,0000.0,0008.22,0005.20,0004.83
2022-11-30 02:59:00,,0823.1,5.01,0.00,22.0,20.5,00.0,31.0,23.7,09.1,0000.0,0008.34,0005.24,0004.86
